GFSGBSN_prec_precacc12_108.txt.gz
Total_Precipitation_Accumulation
0.00 0.00 0.00 0.00 0.00 0.00 0.00 0.00 0.01 0.01 0.01 0.00 0.00 0.00 0.01 0.01 0.01 0.02 0.02 0.02 0.01 0.00 0.00 0.00 0.00 0.00 0.00 0.00 0.00 0.00 0.00 0.00 0.00 0.00 0.00 0.00 0.00 0.00 0.00 0.00 0.00 0.00 0.00 0.00 0.00 0.00 0.00
0.00 0.00 0.00 0.00 0.00 0.00 0.00 0.00 0.00 0.00 0.00 0.00 0.00 0.00 0.01 0.01 0.02 0.04 0.03 0.02 0.01 0.01 0.00 0.00 0.00 0.00 0.00 0.00 0.00 0.00 0.00 0.00 0.00 0.00 0.00 0.00 0.00 0.00 0.00 0.00 0.00 0.00 0.00 0.00 0.00 0.00 0.00
0.00 0.00 0.00 0.00 0.00 0.00 0.00 0.00 0.00 0.00 0.00 0.01 0.01 0.01 0.01 0.02 0.04 0.05 0.04 0.02 0.02 0.02 0.01 0.00 0.00 0.00 0.00 0.00 0.00 0.00 0.00 0.00 0.00 0.00 0.00 0.00 0.00 0.00 0.00 0.00 0.00 0.00 0.00 0.00 0.00 0.00 0.00
0.00 0.00 0.00 0.00 0.00 0.00 0.00 0.00 0.00 0.00 0.01 0.01 0.01 0.02 0.02 0.03 0.04 0.05 0.06 0.04 0.04 0.04 0.02 0.00 0.00 0.00 0.00 0.00 0.00 0.00 0.00 0.00 0.00 0.00 0.00 0.00 0.00 0.00 0.00 0.00 0.00 0.00 0.00 0.00 0.00 0.00 0.00
0.00 0.00 0.00 0.00 0.00 0.00 0.00 0.00 0.00 0.01 0.01 0.01 0.02 0.02 0.03 0.03 0.04 0.05 0.04 0.04 0.06 0.05 0.02 0.00 0.00 0.00 0.00 0.00 0.00 0.00 0.00 0.00 0.00 0.00 0.00 0.00 0.00 0.00 0.00 0.00 0.00 0.00 0.00 0.00 0.00 0.00 0.00
0.00 0.00 0.00 0.00 0.00 0.00 0.00 0.00 0.00 0.01 0.01 0.02 0.02 0.03 0.05 0.05 0.06 0.08 0.08 0.09 0.09 0.03 0.01 0.01 0.02 0.01 0.00 0.00 0.00 0.00 0.00 0.00 0.00 0.00 0.00 0.00 0.00 0.00 0.00 0.00 0.00 0.00 0.00 0.00 0.00 0.00 0.00
0.01 0.00 0.00 0.00 0.00 0.00 0.00 0.00 0.00 0.01 0.01 0.02 0.02 0.04 0.05 0.07 0.08 0.08 0.10 0.09 0.05 0.02 0.01 0.00 0.01 0.00 0.00 0.00 0.00 0.00 0.00 0.00 0.00 0.00 0.00 0.00 0.00 0.00 0.00 0.00 0.00 0.00 0.00 0.00 0.00 0.00 0.00
0.00 0.00 0.00 0.00 0.00 0.00 0.00 0.00 0.01 0.01 0.02 0.02 0.03 0.05 0.05 0.08 0.09 0.05 0.02 0.03 0.01 0.00 0.01 0.01 0.02 0.02 0.00 0.00 0.01 0.00 0.00 0.00 0.00 0.00 0.00 0.01 0.01 0.00 0.00 0.00 0.00 0.00 0.00 0.00 0.00 0.00 0.00
0.01 0.01 0.00 0.00 0.00 0.00 0.00 0.01 0.01 0.01 0.02 0.02 0.04 0.06 0.10 0.16 0.18 0.12 0.03 0.03 0.01 0.00 0.03 0.00 0.00 0.00 0.00 0.02 0.04 0.00 0.00 0.00 0.01 0.03 0.02 0.02 0.01 0.00 0.01 0.03 0.02 0.01 0.00 0.00 0.00 0.00 0.00
0.01 0.01 0.01 0.00 0.00 0.00 0.00 0.00 0.00 0.01 0.02 0.03 0.07 0.12 0.16 0.19 0.18 0.06 0.10 0.05 0.03 0.02 0.18 0.03 0.00 0.00 0.00 0.00 0.01 0.00 0.00 0.00 0.01 0.02 0.02 0.06 0.02 0.02 0.02 0.02 0.01 0.04 0.00 0.01 0.01 0.02 0.04
0.01 0.02 0.03 0.01 0.01 0.01 0.01 0.01 0.03 0.06 0.08 0.14 0.18 0.23 0.25 0.13 0.04 0.04 0.04 0.02 0.01 0.05 0.26 0.01 0.00 0.00 0.00 0.00 0.00 0.00 0.00 0.00 0.02 0.01 0.06 0.04 0.01 0.03 0.05 0.02 0.02 0.03 0.01 0.02 0.02 0.02 0.02
0.02 0.02 0.03 0.03 0.00 0.00 0.01 0.01 0.03 0.11 0.18 0.22 0.27 0.22 0.14 0.10 0.05 0.12 0.14 0.17 0.23 0.47 0.36 0.01 0.00 0.00 0.00 0.00 0.00 0.00 0.00 0.00 0.01 0.17 0.13 0.03 0.05 0.03 0.02 0.01 0.03 0.04 0.04 0.01 0.01 0.03 0.11
0.03 0.02 0.03 0.04 0.03 0.01 0.00 0.01 0.02 0.06 0.15 0.25 0.30 0.31 0.26 0.17 0.18 0.15 0.13 0.21 0.53 0.45 0.06 0.01 0.00 0.00 0.00 0.00 0.00 0.00 0.00 0.00 0.01 0.08 0.06 0.04 0.07 0.02 0.00 0.01 0.01 0.06 0.14 0.16 0.12 0.09 0.06
0.09 0.09 0.07 0.06 0.07 0.06 0.03 0.01 0.01 0.03 0.09 0.22 0.35 0.35 0.30 0.27 0.30 0.25 0.31 0.45 0.47 0.07 0.01 0.00 0.00 0.00 0.00 0.00 0.00 0.00 0.00 0.01 0.00 0.00 0.04 0.07 0.04 0.00 0.00 0.00 0.02 0.02 0.05 0.08 0.09 0.06 0.03
0.10 0.10 0.11 0.09 0.10 0.10 0.09 0.05 0.02 0.01 0.02 0.03 0.06 0.05 0.08 0.13 0.18 0.21 0.36 0.55 0.20 0.04 0.01 0.01 0.02 0.02 0.00 0.00 0.00 0.00 0.00 0.01 0.00 0.00 0.02 0.02 0.02 0.00 0.00 0.00 0.02 0.08 0.06 0.00 0.07 0.09 0.08
0.11 0.12 0.12 0.08 0.08 0.09 0.08 0.07 0.04 0.02 0.01 0.01 0.01 0.03 0.06 0.06 0.13 0.24 0.37 0.17 0.01 0.00 0.00 0.00 0.05 0.16 0.01 0.00 0.01 0.00 0.00 0.00 0.01 0.01 0.00 0.02 0.04 0.00 0.00 0.00 0.00 0.01 0.02 0.09 0.10 0.06 0.04
0.13 0.12 0.13 0.10 0.10 0.11 0.12 0.11 0.07 0.01 0.02 0.04 0.04 0.06 0.04 0.09 0.22 0.36 0.23 0.04 0.00 0.00 0.00 0.00 0.00 0.05 0.02 0.01 0.02 0.03 0.03 0.01 0.02 0.02 0.01 0.01 0.02 0.01 0.00 0.00 0.01 0.00 0.03 0.09 0.14 0.06 0.06
0.20 0.26 0.22 0.19 0.18 0.15 0.16 0.13 0.09 0.01 0.00 0.03 0.08 0.14 0.03 0.14 0.33 0.24 0.04 0.00 0.00 0.00 0.00 0.00 0.01 0.02 0.02 0.01 0.01 0.02 0.03 0.03 0.01 0.01 0.01 0.01 0.00 0.01 0.00 0.00 0.00 0.00 0.00 0.06 0.15 0.16 0.07
0.16 0.31 0.36 0.37 0.37 0.30 0.22 0.25 0.18 0.04 0.00 0.04 0.13 0.11 0.13 0.20 0.20 0.05 0.01 0.00 0.00 0.00 0.00 0.01 0.01 0.02 0.01 0.01 0.01 0.03 0.03 0.03 0.00 0.01 0.01 0.00 0.00 0.01 0.01 0.00 0.00 0.00 0.00 0.00 0.00 0.00 0.00
0.26 0.25 0.39 0.42 0.43 0.44 0.31 0.26 0.23 0.08 0.02 0.11 0.20 0.14 0.31 0.30 0.07 0.03 0.02 0.01 0.00 0.00 0.00 0.01 0.02 0.02 0.01 0.01 0.01 0.02 0.01 0.00 0.00 0.00 0.00 0.00 0.00 0.01 0.02 0.01 0.00 0.00 0.00 0.00 0.00 0.00 0.00
0.33 0.35 0.37 0.39 0.37 0.35 0.33 0.27 0.21 0.10 0.05 0.10 0.18 0.10 0.05 0.08 0.03 0.02 0.03 0.01 0.01 0.01 0.00 0.00 0.03 0.03 0.04 0.02 0.01 0.01 0.02 0.00 0.00 0.00 0.00 0.00 0.00 0.00 0.00 0.00 0.00 0.00 0.00 0.00 0.00 0.00 0.00
0.34 0.44 0.31 0.33 0.31 0.36 0.24 0.22 0.26 0.15 0.14 0.16 0.09 0.09 0.02 0.01 0.00 0.02 0.04 0.03 0.02 0.01 0.00 0.01 0.02 0.02 0.03 0.04 0.01 0.01 0.01 0.00 0.00 0.00 0.00 0.00 0.00 0.00 0.00 0.00 0.00 0.00 0.00 0.00 0.00 0.00 0.00
0.21 0.22 0.25 0.24 0.24 0.30 0.35 0.17 0.17 0.14 0.09 0.11 0.05 0.03 0.04 0.03 0.03 0.03 0.03 0.01 0.02 0.03 0.01 0.00 0.02 0.02 0.02 0.02 0.00 0.00 0.00 0.00 0.00 0.00 0.00 0.00 0.00 0.00 0.00 0.00 0.00 0.00 0.00 0.00 0.00 0.00 0.01
0.20 0.15 0.15 0.18 0.22 0.17 0.29 0.20 0.12 0.09 0.04 0.07 0.10 0.08 0.07 0.06 0.02 0.02 0.01 0.01 0.02 0.03 0.01 0.00 0.00 0.01 0.01 0.00 0.00 0.00 0.00 0.00 0.00 0.00 0.00 0.00 0.00 0.00 0.00 0.00 0.00 0.00 0.00 0.00 0.00 0.01 0.01
0.33 0.17 0.19 0.16 0.17 0.16 0.16 0.19 0.08 0.03 0.02 0.10 0.10 0.13 0.12 0.11 0.01 0.02 0.02 0.02 0.04 0.05 0.01 0.00 0.00 0.00 0.00 0.00 0.00 0.00 0.00 0.00 0.00 0.00 0.00 0.00 0.00 0.00 0.00 0.00 0.00 0.01 0.00 0.01 0.02 0.04 0.03
0.28 0.23 0.16 0.15 0.09 0.13 0.11 0.10 0.03 0.01 0.04 0.11 0.08 0.06 0.08 0.15 0.03 0.01 0.02 0.03 0.05 0.04 0.01 0.00 0.00 0.00 0.00 0.00 0.00 0.00 0.00 0.00 0.00 0.00 0.00 0.00 0.00 0.00 0.01 0.01 0.01 0.03 0.00 0.00 0.04 0.10 0.04
0.30 0.28 0.16 0.13 0.06 0.07 0.08 0.04 0.00 0.00 0.04 0.12 0.07 0.03 0.05 0.18 0.04 0.02 0.04 0.04 0.02 0.02 0.01 0.00 0.00 0.00 0.00 0.00 0.01 0.01 0.00 0.00 0.00 0.01 0.02 0.01 0.01 0.01 0.01 0.02 0.04 0.01 0.00 0.01 0.09 0.10 0.06
0.31 0.35 0.12 0.09 0.05 0.05 0.05 0.02 0.01 0.01 0.03 0.09 0.08 0.01 0.06 0.18 0.01 0.02 0.02 0.02 0.01 0.01 0.01 0.00 0.00 0.00 0.00 0.00 0.00 0.01 0.01 0.00 0.01 0.02 0.03 0.03 0.02 0.02 0.02 0.03 0.06 0.00 0.00 0.04 0.09 0.10 0.14
0.32 0.24 0.06 0.06 0.03 0.02 0.02 0.02 0.02 0.01 0.03 0.06 0.10 0.01 0.01 0.07 0.01 0.00 0.00 0.00 0.00 0.00 0.00 0.00 0.00 0.00 0.00 0.00 0.00 0.00 0.01 0.01 0.02 0.03 0.01 0.03 0.05 0.06 0.05 0.05 0.02 0.02 0.04 0.06 0.08 0.14 0.21

GFSGBSN_prec_precacc12_111.txt.gz
Total_Precipitation_Accumulation
0.00 0.00 0.00 0.00 0.00 0.00 0.00 0.00 0.00 0.00 0.00 0.00 0.00 0.00 0.00 0.00 0.01 0.01 0.02 0.02 0.01 0.01 0.00 0.00 0.00 0.00 0.00 0.00 0.00 0.00 0.00 0.00 0.00 0.00 0.00 0.00 0.00 0.00 0.00 0.00 0.00 0.00 0.00 0.00 0.00 0.00 0.00
0.00 0.00 0.00 0.00 0.00 0.00 0.00 0.00 0.00 0.00 0.00 0.00 0.00 0.00 0.01 0.01 0.01 0.02 0.02 0.01 0.01 0.01 0.00 0.00 0.00 0.00 0.00 0.00 0.00 0.00 0.00 0.00 0.00 0.00 0.00 0.00 0.00 0.00 0.00 0.00 0.00 0.00 0.00 0.00 0.00 0.00 0.00
0.00 0.00 0.00 0.00 0.00 0.00 0.00 0.00 0.00 0.00 0.00 0.00 0.00 0.01 0.01 0.01 0.01 0.02 0.03 0.01 0.01 0.01 0.01 0.00 0.00 0.00 0.00 0.00 0.00 0.00 0.00 0.00 0.00 0.00 0.00 0.00 0.00 0.00 0.00 0.00 0.00 0.00 0.00 0.00 0.00 0.00 0.00
0.00 0.00 0.00 0.00 0.00 0.00 0.00 0.00 0.00 0.00 0.00 0.00 0.00 0.01 0.01 0.01 0.01 0.03 0.04 0.02 0.02 0.03 0.02 0.00 0.00 0.00 0.00 0.00 0.00 0.00 0.00 0.00 0.00 0.00 0.00 0.00 0.00 0.00 0.00 0.00 0.00 0.00 0.00 0.00 0.00 0.00 0.00
0.00 0.00 0.00 0.00 0.00 0.00 0.00 0.00 0.00 0.00 0.00 0.00 0.01 0.01 0.01 0.01 0.02 0.03 0.03 0.03 0.05 0.06 0.02 0.00 0.00 0.00 0.00 0.00 0.00 0.00 0.00 0.00 0.00 0.00 0.00 0.00 0.00 0.00 0.00 0.00 0.00 0.00 0.00 0.00 0.00 0.00 0.00
0.00 0.00 0.00 0.00 0.00 0.00 0.00 0.00 0.00 0.00 0.00 0.00 0.00 0.01 0.01 0.01 0.03 0.07 0.07 0.09 0.09 0.04 0.01 0.00 0.00 0.00 0.00 0.00 0.00 0.00 0.00 0.00 0.00 0.00 0.00 0.00 0.00 0.00 0.00 0.00 0.00 0.00 0.00 0.00 0.00 0.00 0.00
0.00 0.00 0.00 0.00 0.00 0.00 0.00 0.00 0.00 0.00 0.00 0.00 0.00 0.00 0.02 0.03 0.06 0.09 0.10 0.08 0.04 0.01 0.00 0.00 0.00 0.00 0.00 0.00 0.00 0.00 0.00 0.00 0.00 0.00 0.00 0.00 0.00 0.00 0.00 0.00 0.00 0.00 0.00 0.00 0.00 0.00 0.00
0.00 0.00 0.00 0.00 0.00 0.00 0.00 0.00 0.00 0.00 0.00 0.00 0.00 0.01 0.01 0.05 0.07 0.04 0.02 0.03 0.00 0.00 0.00 0.00 0.00 0.00 0.00 0.00 0.00 0.00 0.00 0.00 0.00 0.00 0.00 0.01 0.01 0.00 0.00 0.00 0.00 0.00 0.00 0.00 0.00 0.00 0.00
0.02 0.01 0.00 0.00 0.00 0.00 0.00 0.00 0.00 0.00 0.00 0.00 0.00 0.01 0.03 0.09 0.12 0.09 0.03 0.02 0.00 0.00 0.03 0.00 0.00 0.00 0.00 0.00 0.00 0.00 0.00 0.00 0.01 0.03 0.02 0.02 0.01 0.00 0.01 0.03 0.02 0.01 0.00 0.00 0.00 0.00 0.00
0.01 0.01 0.01 0.00 0.00 0.00 0.00 0.00 0.00 0.00 0.00 0.00 0.01 0.03 0.09 0.15 0.19 0.05 0.11 0.03 0.00 0.01 0.16 0.03 0.00 0.00 0.00 0.00 0.00 0.00 0.00 0.00 0.01 0.02 0.02 0.06 0.02 0.02 0.02 0.02 0.01 0.04 0.00 0.01 0.01 0.02 0.04
0.01 0.01 0.01 0.01 0.01 0.00 0.00 0.00 0.00 0.00 0.00 0.01 0.04 0.09 0.11 0.08 0.01 0.02 0.02 0.00 0.00 0.05 0.21 0.01 0.00 0.00 0.00 0.00 0.00 0.00 0.00 0.00 0.01 0.01 0.06 0.04 0.01 0.03 0.05 0.02 0.02 0.03 0.01 0.02 0.02 0.02 0.04
0.02 0.02 0.02 0.03 0.01 0.00 0.00 0.00 0.00 0.01 0.03 0.05 0.09 0.12 0.10 0.08 0.02 0.04 0.03 0.05 0.10 0.31 0.25 0.01 0.00 0.00 0.00 0.00 0.00 0.00 0.00 0.00 0.01 0.17 0.13 0.03 0.05 0.03 0.02 0.01 0.03 0.04 0.04 0.01 0.01 0.06 0.18
0.02 0.02 0.02 0.04 0.03 0.01 0.00 0.00 0.00 0.02 0.06 0.13 0.13 0.11 0.09 0.04 0.04 0.05 0.07 0.17 0.57 0.42 0.04 0.00 0.00 0.00 0.00 0.00 0.00 0.00 0.00 0.00 0.01 0.08 0.06 0.04 0.07 0.02 0.00 0.01 0.01 0.06 0.14 0.18 0.15 0.13 0.08
0.05 0.07 0.05 0.05 0.07 0.05 0.02 0.01 0.00 0.01 0.04 0.11 0.18 0.22 0.17 0.12 0.16 0.19 0.26 0.45 0.48 0.07 0.00 0.00 0.00 0.00 0.00 0.00 0.00 0.00 0.00 0.01 0.00 0.00 0.04 0.07 0.04 0.00 0.00 0.00 0.02 0.02 0.05 0.09 0.12 0.09 0.05
0.09 0.09 0.11 0.07 0.08 0.09 0.08 0.05 0.01 0.01 0.01 0.03 0.07 0.05 0.08 0.10 0.13 0.19 0.38 0.61 0.22 0.03 0.00 0.01 0.00 0.00 0.00 0.00 0.00 0.00 0.00 0.01 0.00 0.00 0.02 0.03 0.02 0.00 0.00 0.00 0.02 0.09 0.07 0.00 0.09 0.11 0.13
0.10 0.12 0.13 0.11 0.10 0.09 0.08 0.09 0.05 0.02 0.01 0.01 0.01 0.05 0.09 0.11 0.18 0.36 0.49 0.26 0.02 0.00 0.00 0.01 0.01 0.02 0.00 0.00 0.01 0.01 0.01 0.01 0.01 0.01 0.00 0.02 0.04 0.00 0.00 0.00 0.00 0.01 0.02 0.12 0.16 0.08 0.06
0.11 0.13 0.14 0.11 0.11 0.12 0.12 0.13 0.11 0.05 0.04 0.05 0.04 0.08 0.06 0.16 0.30 0.52 0.41 0.13 0.01 0.00 0.00 0.02 0.01 0.01 0.01 0.00 0.02 0.04 0.05 0.02 0.02 0.02 0.01 0.01 0.01 0.01 0.00 0.00 0.01 0.00 0.03 0.10 0.20 0.12 0.09
0.17 0.26 0.22 0.19 0.16 0.14 0.17 0.14 0.13 0.09 0.10 0.08 0.15 0.25 0.03 0.16 0.48 0.42 0.10 0.02 0.02 0.02 0.02 0.02 0.01 0.00 0.01 0.00 0.01 0.02 0.03 0.05 0.01 0.03 0.03 0.01 0.02 0.01 0.00 0.00 0.00 0.00 0.00 0.08 0.21 0.27 0.28
0.10 0.31 0.36 0.36 0.36 0.28 0.23 0.25 0.22 0.18 0.14 0.10 0.18 0.22 0.16 0.29 0.32 0.12 0.02 0.01 0.02 0.01 0.02 0.02 0.01 0.00 0.00 0.01 0.01 0.03 0.03 0.03 0.00 0.01 0.03 0.02 0.05 0.02 0.02 0.00 0.00 0.00 0.00 0.01 0.03 0.02 0.01
0.16 0.23 0.40 0.40 0.41 0.43 0.32 0.26 0.26 0.29 0.31 0.29 0.32 0.24 0.35 0.50 0.15 0.04 0.02 0.01 0.06 0.02 0.00 0.01 0.02 0.01 0.01 0.01 0.01 0.02 0.02 0.00 0.00 0.00 0.00 0.00 0.00 0.01 0.02 0.01 0.00 0.00 0.00 0.00 0.00 0.00 0.00
0.17 0.32 0.37 0.38 0.36 0.35 0.34 0.29 0.23 0.28 0.32 0.40 0.32 0.18 0.07 0.13 0.06 0.03 0.05 0.03 0.01 0.02 0.00 0.00 0.03 0.03 0.04 0.02 0.01 0.01 0.03 0.00 0.00 0.00 0.00 0.00 0.00 0.00 0.00 0.00 0.00 0.00 0.00 0.00 0.00 0.00 0.00
0.16 0.40 0.30 0.33 0.30 0.37 0.25 0.23 0.30 0.28 0.43 0.46 0.21 0.15 0.14 0.01 0.00 0.02 0.07 0.08 0.03 0.01 0.01 0.01 0.02 0.02 0.03 0.05 0.01 0.01 0.02 0.01 0.00 0.00 0.00 0.00 0.00 0.00 0.00 0.00 0.00 0.00 0.00 0.00 0.00 0.00 0.00
0.14 0.20 0.24 0.23 0.23 0.31 0.36 0.18 0.19 0.34 0.50 0.36 0.10 0.05 0.27 0.32 0.09 0.05 0.04 0.02 0.05 0.07 0.03 0.01 0.02 0.03 0.04 0.04 0.00 0.00 0.00 0.00 0.00 0.00 0.00 0.00 0.00 0.00 0.00 0.00 0.00 0.00 0.00 0.00 0.00 0.00 0.00
0.18 0.14 0.14 0.16 0.22 0.18 0.31 0.23 0.16 0.23 0.32 0.13 0.12 0.11 0.12 0.14 0.20 0.06 0.01 0.01 0.03 0.06 0.05 0.03 0.01 0.02 0.01 0.00 0.00 0.00 0.00 0.00 0.00 0.00 0.00 0.00 0.00 0.00 0.00 0.00 0.00 0.00 0.00 0.00 0.00 0.00 0.00
0.32 0.16 0.18 0.17 0.20 0.18 0.18 0.22 0.12 0.14 0.14 0.15 0.14 0.17 0.19 0.14 0.03 0.06 0.04 0.03 0.05 0.08 0.07 0.05 0.02 0.01 0.00 0.00 0.00 0.00 0.00 0.00 0.00 0.00 0.00 0.00 0.00 0.00 0.00 0.00 0.00 0.00 0.00 0.00 0.01 0.02 0.01
0.29 0.23 0.17 0.16 0.13 0.16 0.14 0.14 0.12 0.06 0.13 0.16 0.10 0.11 0.16 0.17 0.05 0.03 0.06 0.06 0.10 0.12 0.15 0.10 0.00 0.00 0.00 0.00 0.00 0.00 0.00 0.00 0.00 0.00 0.00 0.00 0.00 0.00 0.01 0.01 0.02 0.03 0.00 0.00 0.02 0.07 0.01
0.33 0.29 0.18 0.14 0.09 0.10 0.10 0.08 0.12 0.06 0.09 0.17 0.14 0.05 0.12 0.25 0.18 0.06 0.08 0.12 0.07 0.08 0.11 0.02 0.00 0.00 0.00 0.00 0.01 0.01 0.01 0.00 0.00 0.01 0.01 0.01 0.01 0.01 0.01 0.02 0.04 0.00 0.00 0.01 0.06 0.07 0.01
0.31 0.36 0.13 0.10 0.06 0.06 0.07 0.08 0.10 0.07 0.07 0.12 0.12 0.04 0.11 0.41 0.29 0.09 0.04 0.12 0.08 0.06 0.05 0.00 0.00 0.00 0.00 0.00 0.01 0.02 0.04 0.01 0.01 0.02 0.02 0.02 0.01 0.01 0.02 0.03 0.06 0.00 0.00 0.02 0.05 0.03 0.03
0.33 0.28 0.09 0.06 0.04 0.03 0.06 0.08 0.07 0.04 0.04 0.08 0.14 0.03 0.09 0.29 0.09 0.04 0.02 0.06 0.04 0.02 0.01 0.00 0.00 0.00 0.00 0.00 0.00 0.01 0.02 0.01 0.02 0.03 0.01 0.02 0.04 0.05 0.04 0.05 0.01 0.00 0.00 0.01 0.03 0.05 0.08

GFSGBSN_prec_precacc12_114.txt.gz
Total_Precipitation_Accumulation
0.00 0.00 0.00 0.00 0.00 0.00 0.00 0.00 0.00 0.00 0.00 0.00 0.00 0.00 0.00 0.00 0.00 0.01 0.01 0.01 0.01 0.00 0.00 0.00 0.00 0.00 0.00 0.00 0.00 0.00 0.00 0.00 0.00 0.00 0.00 0.00 0.00 0.00 0.00 0.00 0.00 0.00 0.00 0.00 0.00 0.00 0.00
0.00 0.00 0.00 0.00 0.00 0.00 0.00 0.00 0.00 0.00 0.00 0.00 0.00 0.00 0.00 0.00 0.01 0.01 0.01 0.00 0.00 0.01 0.01 0.00 0.00 0.00 0.00 0.00 0.00 0.00 0.00 0.00 0.00 0.00 0.00 0.00 0.00 0.00 0.00 0.00 0.00 0.00 0.00 0.00 0.00 0.00 0.00
0.00 0.00 0.00 0.00 0.00 0.00 0.00 0.00 0.00 0.00 0.00 0.00 0.00 0.00 0.00 0.00 0.01 0.01 0.01 0.00 0.00 0.01 0.01 0.00 0.00 0.00 0.00 0.00 0.00 0.00 0.00 0.00 0.00 0.00 0.00 0.00 0.00 0.00 0.00 0.00 0.00 0.00 0.00 0.00 0.00 0.00 0.00
0.00 0.00 0.00 0.00 0.00 0.00 0.00 0.00 0.00 0.00 0.00 0.00 0.00 0.00 0.00 0.00 0.00 0.01 0.02 0.01 0.02 0.03 0.02 0.00 0.00 0.00 0.00 0.00 0.00 0.00 0.00 0.00 0.00 0.00 0.00 0.00 0.00 0.00 0.00 0.00 0.00 0.00 0.00 0.00 0.00 0.00 0.00
0.00 0.00 0.00 0.00 0.00 0.00 0.00 0.00 0.00 0.00 0.00 0.00 0.00 0.00 0.00 0.00 0.01 0.02 0.02 0.03 0.06 0.06 0.03 0.00 0.00 0.00 0.00 0.00 0.00 0.00 0.00 0.00 0.00 0.00 0.00 0.00 0.00 0.00 0.00 0.00 0.00 0.00 0.00 0.00 0.00 0.00 0.00
0.00 0.00 0.00 0.00 0.00 0.00 0.00 0.00 0.00 0.00 0.00 0.00 0.00 0.00 0.00 0.00 0.01 0.03 0.06 0.08 0.09 0.04 0.01 0.00 0.00 0.00 0.00 0.00 0.00 0.00 0.00 0.00 0.00 0.00 0.00 0.00 0.00 0.00 0.00 0.00 0.00 0.00 0.00 0.00 0.00 0.00 0.00
0.00 0.00 0.00 0.00 0.00 0.00 0.00 0.00 0.00 0.00 0.00 0.00 0.00 0.00 0.00 0.00 0.02 0.09 0.09 0.05 0.03 0.00 0.00 0.00 0.00 0.00 0.00 0.00 0.00 0.00 0.00 0.00 0.00 0.00 0.00 0.00 0.00 0.00 0.00 0.00 0.00 0.00 0.00 0.00 0.00 0.00 0.00
0.00 0.00 0.00 0.00 0.00 0.00 0.00 0.00 0.00 0.00 0.00 0.00 0.00 0.00 0.00 0.01 0.04 0.04 0.01 0.01 0.00 0.00 0.00 0.00 0.00 0.00 0.00 0.00 0.00 0.00 0.00 0.00 0.00 0.00 0.00 0.00 0.01 0.00 0.00 0.00 0.00 0.00 0.00 0.00 0.00 0.00 0.00
0.02 0.01 0.00 0.00 0.00 0.00 0.00 0.00 0.00 0.00 0.00 0.00 0.00 0.00 0.00 0.02 0.07 0.06 0.01 0.01 0.00 0.00 0.02 0.00 0.00 0.00 0.00 0.00 0.00 0.00 0.00 0.00 0.00 0.00 0.00 0.00 0.01 0.00 0.01 0.03 0.02 0.01 0.00 0.00 0.00 0.00 0.00
0.01 0.01 0.01 0.00 0.00 0.00 0.00 0.00 0.00 0.00 0.00 0.00 0.00 0.00 0.01 0.09 0.20 0.04 0.07 0.01 0.00 0.01 0.08 0.01 0.00 0.00 0.00 0.00 0.00 0.00 0.00 0.00 0.00 0.00 0.00 0.00 0.00 0.01 0.02 0.02 0.01 0.04 0.00 0.01 0.01 0.02 0.04
0.01 0.01 0.00 0.00 0.00 0.00 0.00 0.00 0.00 0.00 0.00 0.00 0.00 0.00 0.03 0.05 0.01 0.01 0.01 0.00 0.00 0.04 0.11 0.00 0.00 0.00 0.00 0.00 0.00 0.00 0.00 0.00 0.00 0.00 0.00 0.00 0.00 0.00 0.02 0.02 0.02 0.03 0.01 0.02 0.02 0.02 0.04
0.02 0.01 0.01 0.01 0.00 0.00 0.00 0.00 0.00 0.00 0.00 0.00 0.01 0.03 0.05 0.08 0.01 0.00 0.00 0.00 0.05 0.14 0.08 0.00 0.00 0.00 0.00 0.00 0.00 0.00 0.00 0.00 0.00 0.06 0.06 0.02 0.04 0.01 0.00 0.00 0.03 0.04 0.04 0.01 0.01 0.06 0.18
0.02 0.01 0.01 0.02 0.02 0.01 0.00 0.00 0.00 0.00 0.03 0.07 0.07 0.06 0.05 0.01 0.01 0.00 0.00 0.09 0.40 0.27 0.02 0.00 0.00 0.00 0.00 0.00 0.00 0.00 0.00 0.00 0.00 0.03 0.05 0.04 0.07 0.02 0.00 0.01 0.01 0.06 0.14 0.18 0.15 0.13 0.08
0.04 0.03 0.03 0.04 0.05 0.04 0.02 0.00 0.00 0.00 0.01 0.06 0.13 0.15 0.09 0.01 0.01 0.03 0.13 0.34 0.33 0.04 0.00 0.00 0.00 0.00 0.00 0.00 0.00 0.00 0.00 0.01 0.00 0.00 0.04 0.07 0.04 0.00 0.00 0.00 0.02 0.02 0.05 0.08 0.12 0.09 0.05
0.06 0.05 0.05 0.06 0.06 0.07 0.07 0.04 0.01 0.00 0.00 0.03 0.06 0.04 0.06 0.07 0.09 0.16 0.37 0.58 0.19 0.03 0.00 0.01 0.00 0.00 0.00 0.00 0.00 0.00 0.00 0.01 0.00 0.00 0.02 0.02 0.02 0.00 0.00 0.00 0.02 0.09 0.07 0.00 0.09 0.11 0.13
0.04 0.06 0.08 0.10 0.10 0.10 0.09 0.09 0.04 0.02 0.01 0.01 0.01 0.06 0.10 0.11 0.20 0.48 0.62 0.31 0.02 0.00 0.00 0.01 0.01 0.00 0.00 0.00 0.01 0.01 0.01 0.01 0.01 0.01 0.00 0.01 0.04 0.00 0.00 0.00 0.00 0.01 0.02 0.12 0.16 0.09 0.06
0.02 0.04 0.08 0.11 0.12 0.14 0.14 0.13 0.11 0.05 0.05 0.06 0.05 0.08 0.06 0.15 0.39 0.67 0.57 0.17 0.01 0.00 0.01 0.03 0.01 0.02 0.00 0.00 0.01 0.04 0.05 0.02 0.02 0.02 0.02 0.01 0.02 0.01 0.00 0.01 0.01 0.00 0.03 0.10 0.19 0.11 0.10
0.02 0.01 0.07 0.18 0.17 0.16 0.18 0.15 0.14 0.11 0.16 0.15 0.20 0.30 0.03 0.14 0.59 0.59 0.18 0.04 0.02 0.02 0.03 0.03 0.01 0.00 0.00 0.00 0.01 0.01 0.02 0.04 0.01 0.02 0.04 0.04 0.04 0.02 0.00 0.00 0.00 0.00 0.00 0.09 0.22 0.28 0.32
0.02 0.02 0.06 0.31 0.34 0.28 0.24 0.27 0.24 0.21 0.21 0.14 0.32 0.27 0.17 0.27 0.39 0.18 0.05 0.01 0.03 0.02 0.03 0.04 0.02 0.00 0.00 0.00 0.01 0.03 0.02 0.02 0.00 0.01 0.06 0.11 0.19 0.12 0.06 0.02 0.00 0.00 0.00 0.02 0.05 0.04 0.03
0.04 0.04 0.08 0.31 0.39 0.40 0.31 0.28 0.27 0.29 0.36 0.36 0.51 0.36 0.39 0.56 0.18 0.06 0.03 0.03 0.08 0.03 0.02 0.03 0.03 0.01 0.00 0.00 0.00 0.02 0.02 0.00 0.00 0.00 0.02 0.04 0.09 0.07 0.06 0.02 0.00 0.00 0.00 0.00 0.01 0.01 0.00
0.04 0.06 0.08 0.31 0.35 0.33 0.33 0.30 0.26 0.30 0.36 0.56 0.63 0.40 0.08 0.15 0.07 0.03 0.06 0.03 0.02 0.03 0.05 0.04 0.06 0.03 0.02 0.02 0.01 0.01 0.03 0.00 0.00 0.00 0.00 0.01 0.01 0.01 0.01 0.00 0.00 0.00 0.00 0.00 0.00 0.00 0.00
0.06 0.05 0.04 0.22 0.30 0.36 0.24 0.24 0.31 0.31 0.50 0.55 0.43 0.31 0.17 0.01 0.00 0.02 0.08 0.15 0.04 0.02 0.05 0.04 0.11 0.06 0.03 0.04 0.01 0.01 0.03 0.01 0.00 0.00 0.00 0.00 0.03 0.02 0.01 0.00 0.00 0.00 0.00 0.00 0.00 0.00 0.00
0.07 0.04 0.03 0.10 0.19 0.30 0.36 0.18 0.20 0.37 0.60 0.54 0.19 0.11 0.31 0.36 0.11 0.06 0.04 0.03 0.06 0.13 0.07 0.02 0.03 0.04 0.05 0.04 0.01 0.00 0.00 0.00 0.00 0.00 0.00 0.00 0.02 0.03 0.03 0.01 0.02 0.01 0.00 0.00 0.00 0.00 0.00
0.05 0.04 0.05 0.10 0.19 0.18 0.31 0.23 0.17 0.26 0.36 0.15 0.16 0.17 0.18 0.21 0.37 0.18 0.02 0.01 0.03 0.10 0.12 0.08 0.06 0.03 0.02 0.02 0.01 0.00 0.00 0.00 0.00 0.00 0.00 0.00 0.00 0.01 0.01 0.01 0.05 0.01 0.00 0.00 0.00 0.00 0.00
0.08 0.07 0.09 0.14 0.20 0.19 0.18 0.23 0.14 0.17 0.18 0.17 0.22 0.20 0.23 0.17 0.06 0.19 0.17 0.06 0.06 0.11 0.13 0.12 0.08 0.03 0.01 0.01 0.02 0.04 0.02 0.01 0.00 0.00 0.00 0.00 0.00 0.01 0.00 0.00 0.00 0.00 0.00 0.00 0.00 0.00 0.00
0.19 0.18 0.14 0.16 0.13 0.16 0.15 0.16 0.15 0.11 0.19 0.21 0.23 0.16 0.18 0.22 0.05 0.03 0.08 0.13 0.13 0.13 0.17 0.15 0.10 0.04 0.01 0.01 0.01 0.02 0.01 0.00 0.00 0.00 0.00 0.00 0.00 0.00 0.00 0.01 0.02 0.03 0.00 0.00 0.00 0.03 0.01
0.31 0.28 0.18 0.15 0.10 0.12 0.11 0.11 0.15 0.10 0.16 0.31 0.21 0.10 0.16 0.30 0.18 0.06 0.08 0.13 0.09 0.09 0.16 0.08 0.11 0.12 0.00 0.01 0.02 0.01 0.01 0.00 0.00 0.01 0.01 0.00 0.00 0.00 0.01 0.01 0.03 0.00 0.00 0.00 0.03 0.05 0.00
0.33 0.37 0.16 0.13 0.09 0.08 0.09 0.09 0.13 0.13 0.13 0.25 0.17 0.05 0.12 0.44 0.33 0.27 0.07 0.13 0.11 0.08 0.08 0.04 0.06 0.02 0.00 0.00 0.01 0.02 0.04 0.01 0.01 0.01 0.01 0.01 0.01 0.01 0.02 0.02 0.05 0.00 0.00 0.01 0.04 0.01 0.00
0.34 0.30 0.10 0.07 0.05 0.05 0.07 0.10 0.16 0.20 0.13 0.13 0.19 0.08 0.11 0.32 0.21 0.26 0.16 0.08 0.06 0.06 0.01 0.00 0.01 0.00 0.00 0.00 0.00 0.01 0.03 0.02 0.02 0.02 0.01 0.02 0.03 0.05 0.03 0.04 0.01 0.00 0.00 0.00 0.01 0.01 0.02

GFSGBSN_prec_precacc12_117.txt.gz
Total_Precipitation_Accumulation
0.00 0.00 0.00 0.00 0.00 0.00 0.00 0.00 0.00 0.00 0.00 0.00 0.00 0.00 0.00 0.00 0.00 0.00 0.01 0.01 0.00 0.00 0.00 0.00 0.00 0.00 0.00 0.00 0.00 0.00 0.00 0.00 0.00 0.00 0.00 0.00 0.00 0.00 0.00 0.00 0.00 0.00 0.00 0.00 0.00 0.00 0.00
0.00 0.00 0.00 0.00 0.00 0.00 0.00 0.00 0.00 0.00 0.00 0.00 0.00 0.00 0.00 0.00 0.00 0.00 0.00 0.00 0.00 0.01 0.01 0.00 0.00 0.00 0.00 0.00 0.00 0.00 0.00 0.00 0.00 0.00 0.00 0.00 0.00 0.00 0.00 0.00 0.00 0.00 0.00 0.00 0.00 0.00 0.00
0.00 0.00 0.00 0.00 0.00 0.00 0.00 0.00 0.00 0.00 0.00 0.00 0.00 0.00 0.00 0.00 0.00 0.00 0.01 0.00 0.00 0.01 0.01 0.01 0.00 0.00 0.00 0.00 0.00 0.00 0.00 0.00 0.00 0.00 0.00 0.00 0.00 0.00 0.00 0.00 0.00 0.00 0.00 0.00 0.00 0.00 0.00
0.01 0.00 0.00 0.00 0.00 0.00 0.00 0.00 0.00 0.00 0.00 0.00 0.00 0.00 0.00 0.00 0.00 0.00 0.01 0.00 0.01 0.03 0.02 0.01 0.00 0.00 0.00 0.00 0.00 0.00 0.00 0.00 0.00 0.00 0.00 0.00 0.00 0.00 0.00 0.00 0.00 0.00 0.00 0.00 0.00 0.00 0.00
0.01 0.01 0.00 0.00 0.00 0.00 0.00 0.00 0.00 0.00 0.00 0.00 0.00 0.00 0.00 0.00 0.00 0.00 0.01 0.02 0.05 0.07 0.03 0.01 0.00 0.00 0.00 0.00 0.00 0.00 0.00 0.00 0.00 0.00 0.00 0.00 0.00 0.00 0.00 0.00 0.00 0.00 0.00 0.00 0.00 0.00 0.00
0.00 0.00 0.00 0.00 0.00 0.00 0.00 0.00 0.00 0.00 0.00 0.00 0.00 0.00 0.00 0.00 0.00 0.01 0.04 0.06 0.08 0.04 0.01 0.00 0.00 0.00 0.00 0.00 0.00 0.00 0.00 0.00 0.00 0.00 0.00 0.00 0.00 0.00 0.00 0.00 0.00 0.00 0.00 0.00 0.00 0.00 0.00
0.00 0.00 0.00 0.00 0.00 0.00 0.00 0.00 0.00 0.00 0.00 0.00 0.00 0.00 0.00 0.00 0.01 0.05 0.06 0.03 0.02 0.00 0.00 0.00 0.00 0.00 0.00 0.00 0.00 0.00 0.00 0.00 0.00 0.00 0.00 0.00 0.00 0.00 0.00 0.00 0.00 0.00 0.00 0.00 0.00 0.00 0.00
0.01 0.00 0.00 0.00 0.00 0.00 0.00 0.00 0.00 0.00 0.00 0.00 0.00 0.00 0.00 0.00 0.02 0.03 0.01 0.00 0.00 0.00 0.00 0.00 0.00 0.00 0.00 0.00 0.00 0.00 0.00 0.00 0.00 0.00 0.00 0.00 0.00 0.00 0.00 0.00 0.00 0.00 0.00 0.00 0.00 0.00 0.00
0.04 0.03 0.01 0.01 0.00 0.00 0.00 0.00 0.00 0.00 0.00 0.00 0.00 0.00 0.00 0.00 0.05 0.04 0.00 0.01 0.00 0.00 0.00 0.00 0.00 0.00 0.00 0.00 0.00 0.00 0.00 0.00 0.00 0.00 0.00 0.00 0.00 0.00 0.00 0.00 0.00 0.00 0.00 0.00 0.00 0.00 0.00
0.04 0.02 0.03 0.03 0.02 0.00 0.00 0.00 0.00 0.00 0.00 0.00 0.00 0.00 0.00 0.05 0.16 0.03 0.06 0.01 0.00 0.00 0.00 0.00 0.00 0.00 0.00 0.00 0.00 0.00 0.00 0.00 0.00 0.00 0.00 0.00 0.00 0.00 0.00 0.00 0.00 0.01 0.00 0.00 0.01 0.02 0.04
0.02 0.01 0.01 0.01 0.01 0.02 0.01 0.00 0.00 0.00 0.00 0.00 0.00 0.00 0.01 0.03 0.00 0.01 0.01 0.00 0.00 0.00 0.01 0.00 0.00 0.00 0.00 0.00 0.00 0.00 0.00 0.00 0.00 0.00 0.00 0.00 0.00 0.00 0.00 0.00 0.00 0.01 0.00 0.01 0.02 0.02 0.04
0.04 0.02 0.02 0.01 0.01 0.01 0.00 0.00 0.00 0.00 0.00 0.00 0.00 0.00 0.02 0.06 0.03 0.00 0.00 0.00 0.03 0.05 0.02 0.00 0.00 0.00 0.00 0.00 0.00 0.00 0.00 0.00 0.00 0.00 0.00 0.00 0.00 0.00 0.00 0.00 0.00 0.02 0.02 0.01 0.01 0.06 0.18
0.03 0.03 0.03 0.02 0.02 0.01 0.00 0.00 0.00 0.00 0.00 0.02 0.03 0.03 0.04 0.01 0.00 0.00 0.01 0.07 0.25 0.10 0.00 0.00 0.00 0.00 0.00 0.00 0.00 0.00 0.00 0.00 0.00 0.00 0.00 0.00 0.00 0.00 0.00 0.00 0.00 0.03 0.09 0.11 0.08 0.10 0.07
0.05 0.04 0.03 0.03 0.03 0.03 0.02 0.01 0.01 0.01 0.00 0.02 0.09 0.12 0.07 0.01 0.00 0.02 0.09 0.24 0.19 0.01 0.00 0.00 0.00 0.00 0.00 0.00 0.00 0.00 0.00 0.00 0.00 0.00 0.01 0.02 0.02 0.00 0.00 0.00 0.01 0.01 0.04 0.05 0.08 0.07 0.03
0.10 0.07 0.05 0.03 0.03 0.05 0.05 0.02 0.01 0.00 0.00 0.01 0.04 0.03 0.04 0.03 0.04 0.13 0.30 0.45 0.11 0.00 0.00 0.01 0.00 0.00 0.00 0.00 0.00 0.00 0.00 0.00 0.00 0.00 0.01 0.02 0.02 0.00 0.00 0.00 0.02 0.07 0.06 0.00 0.09 0.10 0.12
0.07 0.07 0.07 0.07 0.06 0.07 0.08 0.07 0.04 0.01 0.00 0.01 0.01 0.05 0.08 0.10 0.20 0.51 0.63 0.31 0.02 0.00 0.00 0.01 0.01 0.00 0.00 0.00 0.01 0.01 0.01 0.00 0.00 0.01 0.00 0.01 0.02 0.00 0.00 0.00 0.00 0.00 0.02 0.11 0.15 0.08 0.06
0.05 0.05 0.05 0.06 0.06 0.10 0.16 0.13 0.12 0.07 0.05 0.06 0.04 0.07 0.05 0.14 0.42 0.76 0.68 0.20 0.01 0.00 0.01 0.03 0.01 0.01 0.00 0.00 0.01 0.03 0.05 0.02 0.02 0.02 0.02 0.02 0.02 0.01 0.00 0.00 0.00 0.00 0.02 0.07 0.16 0.09 0.08
0.05 0.04 0.03 0.03 0.04 0.10 0.19 0.16 0.14 0.13 0.22 0.17 0.23 0.28 0.02 0.12 0.65 0.67 0.23 0.05 0.02 0.02 0.03 0.03 0.01 0.00 0.00 0.00 0.00 0.01 0.02 0.04 0.01 0.02 0.05 0.07 0.08 0.02 0.00 0.00 0.00 0.00 0.00 0.08 0.21 0.26 0.31
0.03 0.03 0.03 0.02 0.02 0.07 0.23 0.29 0.25 0.23 0.29 0.16 0.34 0.30 0.13 0.28 0.38 0.23 0.06 0.02 0.04 0.02 0.03 0.04 0.02 0.00 0.00 0.00 0.02 0.01 0.02 0.01 0.00 0.01 0.07 0.15 0.22 0.14 0.10 0.05 0.02 0.02 0.00 0.02 0.05 0.05 0.05
0.05 0.03 0.02 0.02 0.03 0.07 0.23 0.29 0.30 0.31 0.42 0.38 0.55 0.39 0.39 0.55 0.18 0.06 0.03 0.06 0.11 0.03 0.02 0.04 0.03 0.03 0.01 0.00 0.01 0.02 0.01 0.00 0.00 0.00 0.03 0.08 0.10 0.08 0.07 0.04 0.01 0.01 0.01 0.00 0.01 0.02 0.01
0.05 0.05 0.04 0.04 0.04 0.07 0.25 0.30 0.28 0.33 0.40 0.62 0.75 0.47 0.07 0.18 0.08 0.03 0.05 0.04 0.02 0.04 0.06 0.05 0.08 0.03 0.02 0.02 0.01 0.01 0.03 0.00 0.00 0.00 0.00 0.02 0.01 0.02 0.03 0.05 0.05 0.04 0.02 0.01 0.00 0.00 0.00
0.05 0.05 0.04 0.04 0.05 0.06 0.15 0.25 0.33 0.31 0.52 0.60 0.53 0.36 0.20 0.02 0.00 0.01 0.08 0.15 0.03 0.01 0.05 0.05 0.10 0.06 0.06 0.04 0.02 0.01 0.03 0.01 0.00 0.00 0.00 0.00 0.03 0.02 0.02 0.00 0.00 0.01 0.00 0.00 0.00 0.00 0.00
0.07 0.05 0.04 0.03 0.04 0.07 0.24 0.19 0.21 0.35 0.62 0.62 0.18 0.11 0.38 0.41 0.11 0.05 0.03 0.03 0.06 0.14 0.08 0.02 0.02 0.06 0.12 0.12 0.03 0.01 0.01 0.01 0.01 0.00 0.00 0.00 0.02 0.05 0.06 0.03 0.15 0.12 0.00 0.00 0.00 0.00 0.00
0.06 0.06 0.06 0.04 0.04 0.06 0.27 0.24 0.17 0.27 0.38 0.14 0.14 0.16 0.21 0.26 0.42 0.18 0.02 0.01 0.02 0.09 0.13 0.09 0.12 0.06 0.03 0.04 0.09 0.09 0.01 0.00 0.00 0.00 0.00 0.00 0.01 0.03 0.02 0.03 0.14 0.04 0.00 0.00 0.00 0.00 0.00
0.05 0.05 0.06 0.07 0.08 0.08 0.16 0.23 0.14 0.17 0.21 0.15 0.20 0.22 0.27 0.21 0.09 0.21 0.17 0.06 0.05 0.11 0.13 0.13 0.12 0.08 0.05 0.06 0.09 0.13 0.06 0.04 0.01 0.00 0.00 0.00 0.00 0.02 0.01 0.02 0.01 0.00 0.00 0.00 0.00 0.00 0.00
0.03 0.03 0.04 0.05 0.07 0.11 0.16 0.16 0.15 0.11 0.22 0.20 0.22 0.19 0.23 0.23 0.09 0.04 0.09 0.14 0.15 0.13 0.18 0.16 0.13 0.11 0.09 0.06 0.07 0.07 0.03 0.01 0.01 0.00 0.00 0.00 0.00 0.00 0.01 0.01 0.02 0.01 0.00 0.00 0.00 0.01 0.00
0.14 0.09 0.07 0.06 0.06 0.11 0.12 0.12 0.16 0.11 0.20 0.29 0.20 0.16 0.29 0.35 0.18 0.06 0.08 0.13 0.08 0.09 0.16 0.08 0.12 0.26 0.22 0.11 0.05 0.02 0.01 0.00 0.00 0.00 0.01 0.00 0.01 0.00 0.00 0.00 0.01 0.00 0.00 0.00 0.00 0.02 0.00
0.28 0.27 0.14 0.13 0.09 0.09 0.10 0.10 0.13 0.15 0.17 0.27 0.16 0.08 0.23 0.55 0.34 0.27 0.07 0.13 0.11 0.08 0.08 0.04 0.08 0.13 0.20 0.18 0.05 0.04 0.04 0.01 0.01 0.00 0.00 0.00 0.00 0.00 0.01 0.01 0.02 0.00 0.00 0.00 0.01 0.00 0.00
0.34 0.31 0.16 0.10 0.08 0.07 0.07 0.09 0.15 0.22 0.16 0.20 0.25 0.12 0.18 0.39 0.22 0.26 0.17 0.10 0.06 0.07 0.01 0.00 0.02 0.01 0.04 0.04 0.01 0.01 0.03 0.02 0.01 0.01 0.00 0.01 0.02 0.02 0.01 0.01 0.00 0.00 0.00 0.00 0.00 0.00 0.00